Вернуться в каталог

THORAD DELTA 1 DEB

АктивенLEO
NORAD 42622·DEBRIS·🇺🇸 United States

Запущен Nov 15, 1974 с Vandenberg Space Force Base

Loading…

Ближайшие Пролёты (ближайшие 24 часа)

TLE

СвежийSource: Space-Track

Эпоха: Sep 14, 2026, 13:34 UTC

1 42622U 74089GP  26257.56561727  .00000088  00000-0  11351-2 0  9994
2 42622 101.4923  17.1760 0153417 328.5764  42.9403 12.24318715572657

Отслеживайте THORAD DELTA 1 DEB в реальном времени с AllMySat

Download on the App Store